User: anonymous   Login
Location: Ottawa
(45.4170°N, 75.7000°W)
Time: 11:12:00
(UTC-05:00)
Language:

Aureole 3 Rocket - Orbit

View from above orbital plane
View from above orbital plane
View from above satellite
View from above satellite

Ground track
Ground track

The orbit data is extracted from the following two-line orbital elements,

1 12849U 81094B   14327.16282730  .00001341  00000-0  12228-3 0   462
2 12849 082.4908 165.1457 0911001 052.2998 315.7252 13.48493412615548
Epoch (UTC): 23 November 2014 03:54:28
Eccentricity: 0.0911001
inclination: 82.4908°
perigee height: 398 km
apogee height: 1757 km
right ascension of ascending node: 165.1457°
argument of perigee: 52.2998°
revolutions per day: 13.48493412
mean anomaly at epoch: 315.7252°
orbit number at epoch: 61554

The dashed part of the orbit path shows where the satellite is in the earth's shadow,  

DLR